This is the latest recevied weather packets stored in our database for station/object HP1GDP-12. If no packets are shown the sender has not sent any weather packets the latest 1 day(s).
| Time | Temp. | Humidity | Pressure | Rain* | Wind** | Luminosity | Snow |
|---|---|---|---|---|---|---|---|
| 1777919588 | 33.89° C | 51% | 1003.1 hPa | - | - | - | - |
| 1777918984 | 33.89° C | 53% | 1003.1 hPa | - | - | - | - |
| 1777918380 | 33.89° C | 50% | 1003.4 hPa | - | - | - | - |
| 1777917776 | 33.89° C | 51% | 1003.6 hPa | - | - | - | - |
| 1777917172 | 33.89° C | 50% | 1003.5 hPa | - | - | - | - |
| 1777916567 | 33.89° C | 51% | 1003.8 hPa | - | - | - | - |
| 1777915964 | 33.33° C | 51% | 1004 hPa | - | - | - | - |
| 1777915359 | 33.33° C | 53% | 1004.3 hPa | - | - | - | - |
| 1777914756 | 33.89° C | 53% | 1004.4 hPa | - | - | - | - |
| 1777914151 | 33.89° C | 50% | 1004.5 hPa | - | - | - | - |
| 1777913547 | 33.89° C | 50% | 1004.6 hPa | - | - | - | - |
| 1777912943 | 33.89° C | 48% | 1004.6 hPa | - | - | - | - |
| 1777912339 | 33.89° C | 48% | 1004.8 hPa | - | - | - | - |
| 1777911734 | 33.89° C | 48% | 1004.9 hPa | - | - | - | - |
| 1777911131 | 33.89° C | 47% | 1004.9 hPa | - | - | - | - |
| 1777910526 | 33.89° C | 47% | 1005 hPa | - | - | - | - |
| 1777909922 | 33.89° C | 46% | 1005.1 hPa | - | - | - | - |
| 1777909318 | 33.33° C | 46% | 1005.1 hPa | - | - | - | - |
| 1777908713 | 33.89° C | 46% | 1005.1 hPa | - | - | - | - |
| 1777908110 | 33.89° C | 45% | 1005 hPa | - | - | - | - |
| 1777907506 | 33.33° C | 45% | 1005 hPa | - | - | - | - |
| 1777906297 | 33.33° C | 44% | 1004.8 hPa | - | - | - | - |
| 1777905693 | 33.33° C | 44% | 1004.9 hPa | - | - | - | - |
| 1777905088 | 33.33° C | 44% | 1005 hPa | - | - | - | - |
| 1777904484 | 33.33° C | 44% | 1005 hPa | - | - | - | - |
* Rain since midnight (hover to see other rain measurements)
** Current wind speed in m/s (hover to see current wind gust speed)